Temp
7 7 7 7 7 7 7 7 7 7 7 7 7 7 7 7 7 7 7 7 8 7 8 8 8 8 8 8 8 8 7 8 9 7 10 16 16 15 16 15 15 15 15 15 15 16 16 15 15 16 16 16 15 16 16 16 17 17 16 16 16 16 16 17 18 18 18 19 19 19 19 19 20 21 22 22 22 23 23 23 24 23 23 23 22 20 20 20
7 7 7 7 7 7 7 7 7 7 7 7 7 7 7 7 7 7 7 7 7 7 8 7 8 8 8 8 8 7 7 8 8 8 13 17 16 16 16 16 15 15 15 14 15 15 15 15 15 15 16 16 15 16 16 16 17 17 16 15 16 16 17 18 18 18 18 18 19 19 19 19 19 20 21 21 22 22 23 23 23 23 23 23 22 20 20 20
7 7 7 7 7 7 7 7 7 7 7 7 7 7 7 7 7 7 7 7 7 7 7 7 8 8 8 8 7 7 7 8 11 14 16 17 17 17 16 16 15 15 14 14 14 14 14 14 14 15 15 15 15 16 16 17 17 17 16 15 16 16 17 18 19 19 19 19 18 19 19 19 19 20 21 21 21 22 22 22 23 23 24 24 23 20 19 20
7 7 7 7 7 7 7 7 7 7 7 7 7 7 7 7 7 7 7 7 7 8 8 8 8 8 8 7 8 8 7 9 14 16 17 17 17 17 17 16 15 14 14 14 14 14 14 14 14 15 15 15 15 15 16 17 17 17 16 16 16 17 17 18 19 19 19 19 19 19 19 19 20 20 20 21 20 21 21 22 23 23 24 23 24 21 18 19
7 7 7 7 7 7 7 7 7 7 7 7 7 7 7 7 7 7 7 7 7 7 8 8 8 8 8 7 8 7 8 13 16 16 16 17 17 17 16 16 15 15 15 14 14 14 14 14 14 15 15 15 15 15 16 17 17 17 16 16 17 17 17 18 18 18 19 19 18 18 18 19 20 20 20 20 20 20 22 23 23 23 24 23 23 21 19 20
7 7 7 7 7 7 7 6 6 7 7 7 7 7 7 7 7 7 7 7 7 7 7 8 7 7 8 8 8 8 10 16 16 16 17 16 17 17 16 16 16 15 15 15 14 14 14 14 14 15 15 15 15 16 16 16 16 16 16 17 17 17 17 17 18 18 18 18 18 18 19 19 20 20 20 20 20 21 22 23 22 22 22 20 20 21 21 22
7 7 7 7 7 7 6 6 7 7 7 7 7 7 7 7 8 8 8 7 7 7 7 7 7 8 8 9 9 8 11 15 16 16 17 16 17 16 16 16 15 15 15 15 14 14 15 15 15 15 15 15 15 15 16 16 16 16 16 17 17 17 17 17 17 18 18 17 17 18 18 18 19 19 20 20 20 21 22 22 22 21 20 18 19 22 22 22
7 7 7 6 6 6 6 6 6 7 7 7 7 7 7 8 9 9 9 9 8 7 7 7 7 8 8 9 9 11 13 16 17 16 16 16 16 16 16 16 15 15 15 15 15 15 15 15 15 15 15 15 15 15 16 16 16 16 16 16 17 17 17 17 17 17 17 17 17 17 17 18 18 18 19 20 20 20 21 22 22 20 20 20 21 22 21 21
7 7 6 6 6 6 6 6 6 7 7 7 8 8 8 10 10 10 10 10 8 7 7 7 7 8 8 7 8 13 16 16 17 16 17 16 16 16 16 16 16 15 15 15 15 15 15 15 15 15 15 15 15 16 16 15 16 16 16 16 16 16 17 17 17 17 17 17 17 17 17 19 19 18 18 19 20 20 20 21 22 20 20 21 22 23 21 21
7 7 6 6 6 6 6 6 6 7 8 8 9 10 10 10 11 11 11 11 9 8 8 8 8 8 8 8 10 15 17 16 17 16 17 16 16 16 16 16 16 16 15 15 15 15 16 15 15 16 15 15 15 15 15 15 16 16 16 16 16 16 16 16 17 17 17 17 18 18 18 19 18 18 19 20 20 20 19 20 21 21 21 21 21 23 21 20
7 6 6 6 6 6 6 6 7 8 9 10 11 11 11 11 12 12 12 11 9 8 9 9 8 8 8 8 12 17 17 16 17 16 16 16 16 16 16 16 16 16 15 15 15 15 16 15 15 15 15 15 15 15 16 16 16 16 16 16 16 16 16 16 17 17 18 18 19 18 18 18 17 18 19 21 21 20 19 20 21 21 22 21 21 22 22 21
6 6 6 6 6 6 6 7 8 9 11 12 12 12 12 12 13 13 13 12 10 10 10 9 8 8 8 8 12 16 17 16 17 16 16 16 16 16 16 16 16 16 16 15 16 16 16 15 15 15 15 15 15 15 16 16 16 16 16 15 16 16 16 16 17 17 17 18 19 18 17 18 18 19 20 21 21 20 20 21 21 21 22 22 21 21 22 21
6 6 6 6 6 6 6 8 10 11 12 13 13 13 13 13 14 14 14 13 12 11 11 9 9 8 8 12 15 16 17 16 17 17 17 16 16 17 16 16 16 16 16 15 16 16 16 16 16 15 15 15 15 15 16 16 16 16 16 15 15 15 15 16 16 16 17 17 19 18 17 17 19 20 21 21 20 20 20 20 21 22 21 21 20 20 22 21
6 6 6 6 6 6 7 9 11 12 13 14 14 13 14 14 14 14 13 13 12 11 10 9 9 8 8 14 17 17 17 17 17 18 17 17 16 17 17 17 16 16 16 15 16 16 16 16 16 15 15 15 15 16 16 15 15 15 15 15 14 14 15 16 16 16 17 17 18 18 16 17 18 19 21 20 18 18 19 19 20 20 20 20 20 20 21 21
6 6 6 6 6 7 8 10 12 12 13 14 15 14 14 15 14 14 13 13 12 11 10 9 8 8 10 15 17 17 17 17 18 18 17 17 16 17 18 17 17 16 16 16 16 16 16 16 15 15 15 15 16 15 14 14 15 14 14 14 14 13 14 15 16 16 17 17 17 17 16 16 17 18 20 19 18 18 18 19 19 19 20 19 20 20 21 21
6 6 6 6 6 8 10 11 12 13 14 14 15 15 14 14 14 13 13 12 12 11 10 9 8 8 12 16 18 17 17 17 17 17 17 17 16 17 18 17 17 17 16 16 16 16 16 16 15 15 15 15 15 15 14 14 14 14 13 13 14 14 13 14 16 16 16 16 17 17 16 15 17 18 19 18 18 18 18 19 19 19 20 19 19 20 20 21
6 6 6 6 7 9 10 11 13 14 14 14 15 15 14 14 13 12 12 12 11 10 10 9 8 8 13 18 18 17 17 16 17 17 17 17 16 17 17 17 16 16 16 16 16 16 16 15 15 15 15 14 14 14 13 12 13 13 13 13 13 13 13 13 14 16 16 16 16 16 15 15 16 17 18 18 18 18 18 18 19 19 19 18 18 19 20 20
6 6 6 6 7 10 11 12 13 14 14 15 15 14 14 13 12 12 12 11 10 10 10 10 9 11 15 17 17 16 16 16 17 17 17 17 17 16 16 16 16 15 16 16 16 15 15 15 15 14 14 14 14 14 13 12 13 14 13 13 13 13 13 13 14 15 16 15 15 15 15 15 16 16 17 18 17 17 18 18 18 18 18 18 18 18 20 19
6 6 6 7 9 11 12 12 13 13 14 15 14 14 14 12 12 12 12 12 12 13 14 13 12 14 15 16 16 16 16 16 17 17 17 17 17 16 15 16 16 15 15 15 15 15 15 15 14 14 14 14 14 14 14 14 14 14 14 13 13 13 13 13 14 15 15 15 15 15 15 15 16 16 17 17 17 17 17 17 17 17 17 17 17 18 19 20
7 7 7 8 10 11 12 13 13 14 14 15 14 14 13 12 13 13 12 12 13 13 14 14 13 14 15 16 15 15 16 17 17 17 17 16 16 16 16 15 15 15 15 14 14 15 14 14 13 13 13 14 14 14 14 14 14 14 13 13 13 12 12 13 14 15 16 15 14 15 15 15 15 16 16 17 17 16 17 17 17 17 17 17 17 18 19 20
7 8 9 10 11 12 12 13 13 14 14 14 14 13 12 12 13 14 12 13 12 11 13 13 12 13 14 15 14 14 16 16 16 17 17 17 17 16 16 15 15 15 14 14 14 14 14 13 13 13 14 14 14 13 13 13 13 13 13 12 12 12 12 13 14 14 15 14 14 15 15 14 15 15 16 16 16 16 17 17 17 18 18 17 17 18 19 19
9 10 11 11 12 12 13 13 13 14 14 14 14 12 12 13 13 13 12 13 12 11 12 13 12 13 14 14 14 15 15 15 16 16 17 17 16 16 15 15 14 14 14 13 13 13 13 12 13 14 14 13 13 13 13 13 13 12 12 12 12 12 13 13 14 14 15 14 14 14 14 14 15 15 15 16 16 16 17 17 18 18 18 18 17 18 19 19
10 11 12 13 13 13 13 14 14 14 14 14 13 12 12 13 13 13 12 12 13 13 13 14 14 15 15 15 15 15 15 15 16 16 16 16 15 15 14 14 14 13 13 13 13 12 12 13 13 13 13 13 13 13 13 13 12 12 12 12 11 12 13 12 14 14 15 14 14 14 13 13 14 15 15 16 16 16 17 17 17 17 18 18 17 18 19 20
11 12 13 14 14 14 14 14 14 14 13 13 13 13 13 13 13 13 12 11 12 14 15 15 15 15 16 17 16 15 15 16 15 15 16 15 15 14 14 13 13 13 13 13 12 12 12 13 13 12 12 12 12 12 12 12 12 12 12 12 12 12 13 13 13 14 14 14 14 13 12 13 14 14 15 15 15 16 16 17 18 18 18 17 16 17 18 19
11 13 14 14 14 14 14 14 14 13 13 13 13 13 13 13 13 13 13 12 13 15 15 15 15 16 17 17 16 16 15 16 15 15 16 14 14 14 13 12 13 13 13 12 12 11 11 12 12 12 12 11 11 11 12 12 11 11 12 12 12 13 13 13 13 13 12 12 13 13 12 13 14 13 14 15 15 16 16 17 18 19 19 18 18 19 19 19
11 13 14 15 15 15 14 14 14 13 13 14 13 13 13 13 13 13 13 14 14 15 15 16 16 16 17 16 16 16 15 15 16 16 15 14 14 14 13 13 12 12 12 11 11 11 11 12 12 12 11 11 11 11 11 12 11 11 12 13 13 13 13 13 13 12 12 12 13 13 12 12 13 14 14 15 15 16 16 17 17 18 19 19 20 20 20 20
11 13 14 15 15 15 15 15 14 13 14 14 13 13 13 13 13 12 13 14 14 14 14 15 16 16 17 15 15 15 14 15 16 15 15 14 14 14 13 13 12 12 12 11 11 12 12 12 11 11 11 11 11 11 11 12 11 11 13 14 13 13 12 12 12 12 12 12 12 13 12 11 11 13 15 15 15 16 16 16 16 17 18 19 20 20 20 21
12 13 14 15 14 14 14 14 13 13 14 14 13 13 13 13 13 13 14 14 14 14 14 15 16 17 16 14 14 14 14 15 14 14 15 14 14 13 13 13 12 12 12 11 12 13 12 12 12 12 11 11 11 11 12 12 12 12 14 14 13 13 13 13 12 12 12 12 11 12 12 11 11 13 15 16 15 15 16 16 16 16 17 18 19 19 20 20
13 14 15 15 15 14 14 13 13 13 14 14 13 13 13 13 12 13 15 14 13 14 15 15 16 16 15 14 14 14 14 14 13 14 15 14 13 13 13 12 12 12 11 11 11 12 12 12 13 12 11 11 11 12 12 12 12 13 13 13 12 12 12 12 12 12 12 11 11 12 12 11 12 13 15 15 15 16 16 16 16 17 17 18 19 19 19 20
15 16 16 16 15 14 14 14 14 14 14 13 13 13 12 12 13 14 14 13 13 14 15 15 15 15 13 13 14 14 13 13 13 14 14 13 13 13 12 11 11 11 11 10 11 11 12 12 12 12 11 12 12 12 12 12 12 13 12 12 12 12 12 12 11 11 11 10 11 13 13 12 12 13 14 14 15 16 16 16 16 17 17 17 18 19 19 20
16 17 17 16 16 15 14 14 15 14 13 13 13 12 12 13 13 13 13 13 14 14 14 14 14 14 13 12 13 13 13 12 13 13 12 12 12 12 12 12 11 11 11 11 11 11 12 11 11 11 12 12 12 12 12 12 12 12 12 12 12 11 11 11 10 10 10 11 12 13 13 12 11 13 15 15 16 16 17 17 16 17 17 16 17 18 19 19
17 17 17 16 16 15 15 15 15 15 14 13 12 12 14 14 13 12 13 13 13 13 14 13 13 13 12 12 12 12 12 12 13 12 11 11 11 12 11 11 11 11 11 11 11 11 12 13 12 12 12 12 12 12 12 11 11 11 12 11 11 11 11 10 10 10 10 11 12 13 12 12 11 14 15 15 16 16 16 16 17 17 17 17 17 18 18 19
17 17 17 17 16 16 15 15 15 15 14 13 13 13 14 14 12 12 12 13 13 13 13 13 13 13 12 12 12 12 11 12 12 12 12 11 11 12 11 10 11 11 11 11 10 11 12 13 13 13 13 12 12 13 12 12 11 11 11 11 10 10 10 10 10 10 10 11 12 12 12 11 12 14 15 15 16 16 16 16 16 17 18 17 18 18 18 19
17 17 16 16 16 16 16 16 15 15 15 14 15 15 14 12 12 12 12 13 13 13 13 13 12 12 12 12 12 11 11 12 12 11 12 11 11 12 11 11 11 11 11 10 10 10 11 12 14 14 13 12 13 13 13 13 12 11 11 11 11 11 11 10 10 10 10 11 12 11 11 11 12 14 14 15 15 15 15 16 16 16 17 17 17 17 18 19
17 17 16 16 16 16 16 16 15 15 15 14 15 14 12 12 12 12 12 13 13 13 13 12 12 12 12 12 12 11 11 12 12 11 11 11 11 11 11 12 11 11 11 10 10 10 10 11 13 14 14 13 12 13 13 13 11 11 11 11 11 11 12 11 11 11 11 11 10 10 11 12 12 14 14 14 15 15 15 15 15 15 16 16 16 16 17 18
17 17 16 16 16 16 16 16 15 15 15 15 13 12 12 12 12 12 13 13 13 12 12 12 12 12 12 12 12 12 12 11 11 11 11 11 11 11 11 12 12 12 11 11 10 11 11 12 13 14 13 13 13 13 13 13 12 11 11 11 11 12 12 11 11 10 10 10 10 11 11 12 13 14 15 15 15 15 15 15 15 15 15 15 15 16 16 17
17 17 16 16 16 16 16 15 15 16 16 15 13 12 12 13 13 13 13 13 13 12 12 12 12 11 11 11 12 12 12 11 11 11 10 11 12 12 12 12 12 12 12 11 11 11 11 11 13 13 13 13 13 13 13 13 12 10 10 11 12 11 11 11 10 10 9 9 10 11 11 12 12 13 14 15 15 15 15 15 15 15 14 15 15 15 15 16
16 16 16 15 15 16 16 16 16 15 15 14 13 13 13 13 14 14 13 13 13 12 12 12 11 12 11 11 12 12 11 11 11 10 10 11 12 13 12 12 12 12 12 12 10 10 10 11 12 13 12 13 12 11 11 12 12 11 11 11 11 10 10 10 10 10 10 10 10 11 11 11 12 13 14 15 15 15 15 14 15 15 14 15 15 15 15 15
16 16 16 16 16 16 16 16 16 16 14 13 13 13 13 13 14 14 13 13 12 12 12 12 11 11 11 11 12 12 11 11 10 10 10 11 12 13 13 12 12 12 12 11 10 10 10 10 12 12 12 12 11 10 10 11 11 11 11 10 9 9 10 10 10 10 10 10 10 11 11 12 13 13 14 14 15 16 15 15 15 15 15 15 14 14 15 15
14 16 16 16 16 17 17 16 16 15 14 13 12 13 13 13 14 14 13 13 13 13 13 12 11 11 12 12 12 11 11 11 10 10 11 11 11 13 13 12 12 13 12 11 11 11 10 10 11 12 11 11 10 10 11 11 10 10 10 10 9 9 9 9 10 10 10 10 10 10 11 12 14 15 15 15 15 15 15 15 15 14 14 15 14 14 14 15
12 16 16 16 17 17 17 16 14 13 13 13 12 13 13 13 14 14 14 13 13 13 13 12 12 12 12 12 12 11 11 11 10 10 11 11 11 12 13 13 12 12 12 11 11 11 10 9 10 11 11 12 12 12 12 12 11 10 10 10 10 10 9 10 10 10 10 10 10 10 10 12 15 15 16 16 15 15 15 15 15 14 14 14 14 14 14 14
14 16 15 15 17 17 16 15 12 10 12 13 12 13 13 13 13 14 13 13 13 13 13 13 12 12 12 12 12 12 11 10 10 10 11 11 11 12 13 13 13 12 11 11 11 11 11 10 10 11 12 13 13 11 11 12 11 10 9 9 10 10 10 10 10 10 10 10 11 11 10 12 15 15 16 16 15 15 15 14 14 14 14 14 13 13 13 13
14 15 15 16 16 16 16 14 12 11 13 13 12 13 13 13 13 13 13 13 13 13 13 13 13 12 13 12 12 12 11 11 11 11 11 11 11 13 13 13 12 11 11 11 11 12 11 10 10 11 13 13 11 9 10 11 10 10 10 9 9 10 10 10 10 10 10 10 11 10 10 12 14 15 15 16 16 15 15 14 14 14 14 13 12 12 12 13
11 11 13 15 15 16 15 13 13 13 12 12 12 13 13 12 13 13 12 13 13 13 13 13 13 12 12 12 12 12 11 11 11 12 11 11 12 13 13 12 12 11 12 12 12 12 12 11 11 12 13 13 11 11 10 10 10 10 10 9 9 9 9 10 10 10 10 11 11 10 10 13 14 14 14 15 15 15 15 15 14 14 14 13 12 11 12 13
11 11 12 13 14 14 12 11 11 12 12 12 12 12 12 12 13 12 12 12 13 13 13 13 13 13 12 12 11 12 12 11 11 12 11 11 12 13 13 13 12 12 12 13 13 12 12 12 11 11 12 12 12 12 12 11 11 10 10 10 9 9 9 9 10 10 10 11 11 10 11 13 14 14 14 14 14 15 15 15 14 14 14 13 12 12 12 12
13 13 13 13 12 11 11 10 9 11 11 11 11 11 11 11 12 11 12 12 12 12 13 13 13 12 12 11 10 11 11 11 11 11 11 10 11 13 13 13 12 13 13 14 14 13 12 11 11 11 11 11 11 11 11 11 11 11 11 10 10 10 9 9 10 10 11 11 11 11 12 12 13 13 13 14 14 14 14 15 15 14 13 13 13 12 12 12
12 12 11 11 12 12 11 10 9 10 10 10 11 11 10 10 11 11 12 12 12 12 12 12 12 12 11 10 9 10 11 11 10 10 10 10 11 12 13 13 13 14 14 14 14 13 11 11 11 11 11 11 11 11 12 11 11 11 11 10 10 10 10 10 10 10 11 10 11 12 12 11 11 12 13 13 13 13 13 14 15 14 13 13 13 13 12 12
11 11 9 9 11 11 11 10 9 9 10 10 10 10 10 10 10 10 11 12 12 12 12 12 12 11 10 9 9 10 10 10 10 11 11 11 11 11 12 13 14 14 13 13 13 12 11 11 12 11 11 11 11 12 13 12 11 10 10 10 10 10 10 10 10 10 10 10 11 11 11 10 11 12 12 13 13 12 12 13 14 14 14 13 13 13 12 12
10 10 9 8 10 10 10 9 9 10 10 10 10 10 10 10 10 9 10 11 11 12 11 11 11 11 10 9 9 10 10 10 10 10 11 11 11 11 12 13 14 13 13 12 12 12 11 11 12 11 10 11 12 13 14 12 11 10 10 10 10 10 10 10 10 10 10 10 10 10 10 10 11 12 12 12 12 11 12 12 12 13 14 14 14 14 13 12
10 10 9 9 10 10 9 9 9 10 10 10 10 10 10 10 10 9 9 10 11 12 11 10 11 10 9 9 9 10 11 10 10 10 10 10 10 11 12 13 13 12 12 12 12 12 11 11 11 11 10 12 13 14 13 12 11 11 11 11 10 10 10 10 10 10 10 10 10 10 11 11 12 12 11 11 11 11 11 11 11 12 13 13 14 14 13 13
8 8 8 9 10 9 9 9 9 10 11 10 9 10 9 10 10 9 9 10 10 11 11 10 10 10 9 10 9 10 11 10 10 9 10 10 10 11 12 12 12 11 11 11 11 11 11 10 11 11 10 12 14 13 13 12 11 11 11 10 10 10 10 10 10 9 9 9 10 11 11 11 11 11 11 11 11 11 11 12 12 12 12 12 13 13 13 13
8 8 7 9 10 9 9 10 9 9 11 10 9 9 9 10 10 8 10 10 10 11 11 10 10 9 9 10 10 11 11 10 9 9 9 10 10 10 11 11 11 11 11 11 11 11 11 10 10 10 10 12 13 13 12 11 11 11 11 10 10 10 10 10 10 9 9 9 10 10 10 10 10 10 10 11 11 11 12 12 12 12 12 12 12 13 13 13
Height
821 820 818 816 815 813 812 810 808 807 805 804 802 800 799 798 796 795 794 793 792 791 789 788 786 785 784 782 780 779 776 773 770 769 768 765 763 763 763 763 764 764 764 765 765 765 765 766 766 766 765 766 768 768 768 768 769 771 777 782 779 776 777 773 770 769 769 767 763 762 762 764 762 757 753 751 751 750 748 745 744 743 742 742 741 740 737 733
821 819 817 816 814 813 811 809 808 806 804 803 801 800 798 797 796 795 794 792 791 790 789 787 786 784 783 782 780 778 775 773 770 768 766 764 764 764 763 763 763 764 764 765 765 765 766 767 766 766 766 767 769 768 768 768 768 772 778 781 776 774 774 768 766 766 766 766 765 763 761 762 763 760 756 756 755 752 751 747 744 745 743 741 740 739 737 735
820 819 817 815 814 812 810 809 807 805 804 802 800 799 798 796 795 794 793 791 791 790 788 787 785 784 782 781 779 777 775 772 769 766 765 764 764 764 763 763 763 764 764 765 765 765 766 767 767 767 768 769 769 769 769 768 769 771 775 779 775 772 770 765 764 764 763 764 764 763 761 760 760 758 756 757 757 753 753 750 746 746 744 742 740 739 737 736
820 818 816 815 813 811 810 808 806 804 803 801 800 798 797 796 794 793 792 791 790 789 788 786 784 783 782 780 778 777 776 773 768 765 765 765 764 764 763 763 763 764 764 764 765 765 766 767 767 767 769 770 770 770 770 768 769 770 772 775 772 770 769 765 763 763 762 762 762 762 763 761 757 756 756 757 759 756 752 748 747 746 743 742 740 740 738 736
819 817 816 814 812 810 808 807 805 803 802 801 799 797 796 795 793 792 791 790 789 788 787 786 784 782 781 779 778 777 775 773 768 765 765 765 765 764 764 763 764 764 764 764 765 765 766 767 767 768 770 771 771 770 770 767 766 769 770 769 769 769 768 764 762 762 761 761 761 762 763 760 755 755 754 755 759 755 748 744 743 743 742 742 740 739 739 737
819 817 815 813 811 809 807 806 804 803 801 800 798 796 795 793 792 791 790 789 788 788 787 785 783 782 780 779 777 776 775 771 767 766 765 766 765 764 764 764 764 764 764 765 765 765 766 767 768 769 771 771 772 771 769 767 767 770 769 766 766 766 766 763 761 761 760 762 762 761 759 756 757 756 753 753 754 748 744 742 741 742 741 740 740 739 738 738
818 816 814 812 810 808 807 805 803 802 800 799 797 795 794 792 791 790 789 788 788 787 786 785 783 781 780 778 777 777 776 770 766 766 765 766 765 765 765 764 765 764 765 765 765 766 766 767 768 769 771 771 772 771 768 767 767 770 770 766 764 764 764 762 762 760 760 762 760 758 758 757 759 756 752 750 747 744 742 740 740 741 741 740 740 739 738 738
818 815 813 812 809 808 806 804 803 801 799 797 796 794 793 791 790 789 788 787 787 786 785 784 783 781 780 778 777 777 774 769 766 766 766 766 765 765 765 764 765 764 765 765 765 766 766 768 768 769 772 772 772 770 768 767 766 767 768 765 764 763 762 761 761 760 759 759 757 758 759 757 755 754 751 747 743 742 741 739 739 740 740 740 739 738 738 737
817 815 813 811 809 807 805 803 801 799 798 796 795 793 792 790 789 788 787 786 786 785 784 783 783 782 780 780 780 775 770 766 766 766 765 766 765 765 765 764 765 765 765 765 765 766 766 768 768 768 771 771 771 769 768 769 768 766 766 765 764 763 760 760 760 758 757 757 755 756 757 753 750 752 750 744 741 739 738 738 737 738 739 739 737 736 736 736
816 814 812 810 808 806 804 802 800 798 796 795 794 792 790 789 788 786 785 785 784 784 783 783 782 782 781 780 779 773 768 766 766 766 765 766 765 765 765 764 765 765 765 765 765 765 765 766 766 766 768 770 770 769 768 770 768 765 765 764 763 762 760 759 758 756 756 755 752 754 753 750 749 752 748 740 737 736 737 737 735 735 736 736 735 734 734 735
815 813 811 809 807 805 803 801 799 797 795 794 792 791 789 788 786 785 784 783 783 782 782 782 782 782 781 781 779 771 766 766 766 766 766 765 765 765 765 765 765 765 765 765 765 765 765 765 765 766 768 768 768 768 766 765 764 763 763 762 761 761 759 758 757 754 753 751 747 749 750 749 750 751 745 737 734 735 736 735 733 733 733 733 733 732 732 732
814 812 810 808 806 804 801 799 797 796 794 792 791 789 788 786 785 784 782 782 781 781 782 782 782 781 781 781 778 769 765 766 765 765 765 764 765 764 764 765 764 764 765 764 764 764 764 765 765 767 768 767 769 769 764 762 763 762 762 763 761 759 758 755 753 752 752 749 744 747 752 751 750 746 738 733 732 733 734 733 732 731 731 731 731 730 730 730
813 811 809 807 805 802 800 798 796 795 793 791 790 788 786 785 784 783 782 781 780 781 782 782 781 782 782 777 770 766 765 765 765 764 764 764 763 763 763 763 763 764 764 764 763 763 764 764 764 766 766 767 769 767 762 761 763 762 762 764 765 763 759 754 753 752 752 749 742 747 757 752 745 740 734 732 733 733 734 733 731 729 728 729 730 730 729 728
812 810 808 806 803 801 799 797 795 794 792 790 789 787 785 784 783 782 782 781 780 781 781 782 781 782 782 774 765 765 765 764 764 764 763 763 762 761 761 762 762 762 763 763 762 763 764 763 764 765 765 766 765 763 763 765 764 764 764 765 768 769 763 754 753 753 750 747 742 747 757 752 743 738 732 732 735 736 736 733 731 729 728 729 729 728 728 727
811 809 807 804 802 800 798 796 794 793 792 790 788 787 785 784 783 782 781 781 781 781 781 782 781 782 782 772 764 765 765 764 764 763 763 762 761 760 759 760 761 761 761 761 761 762 762 763 764 765 764 763 763 765 769 769 767 768 768 768 769 769 765 758 753 753 752 749 744 749 756 751 745 739 732 732 735 736 736 733 732 730 728 727 727 727 726 724
811 808 806 804 801 799 797 795 794 793 791 790 788 786 784 783 782 782 782 781 781 781 782 782 782 783 781 770 765 765 764 764 763 762 762 761 760 759 759 759 760 760 761 760 761 761 761 762 763 764 764 763 765 769 772 773 771 772 773 771 768 767 767 763 756 752 753 752 747 750 755 751 745 738 733 733 734 734 734 732 730 729 726 726 726 725 724 722
810 807 805 803 800 798 797 795 793 792 791 790 788 785 784 783 782 782 781 781 782 781 782 782 782 783 777 766 765 766 764 764 762 761 760 759 759 758 759 759 759 760 760 760 760 760 761 762 763 764 765 767 768 769 775 779 775 772 774 773 769 767 768 767 761 753 751 753 751 750 753 749 743 738 734 732 732 733 733 732 730 728 727 725 725 724 721 720
809 807 804 802 800 798 796 795 793 792 791 789 787 785 784 783 783 782 782 782 782 781 782 782 781 782 776 767 767 768 766 764 762 760 759 758 757 757 758 759 760 760 761 761 760 761 762 763 765 767 767 768 769 770 776 778 773 771 771 771 770 768 768 768 764 755 751 753 753 752 750 745 741 739 735 732 731 732 731 730 729 727 726 724 723 722 719 717
808 806 803 801 799 797 796 795 793 792 791 790 787 785 784 784 783 783 783 782 782 782 782 782 781 783 781 772 768 767 765 764 762 761 759 758 757 758 758 760 760 761 765 766 764 763 764 765 769 769 768 768 766 767 769 767 766 767 767 769 769 768 766 764 761 755 752 753 751 751 748 742 740 738 734 731 730 731 729 728 729 727 725 723 721 719 716 714
807 805 803 801 799 797 796 794 793 792 791 790 788 786 786 787 786 784 784 783 783 783 783 783 783 783 780 773 769 767 765 763 762 761 760 759 758 759 759 760 761 763 765 767 766 764 765 768 770 768 767 765 763 764 764 762 763 765 766 767 767 767 764 760 758 752 750 753 748 745 743 739 739 737 732 729 727 728 727 726 726 724 722 720 718 716 713 711
807 804 802 800 798 797 796 795 794 793 792 791 788 788 792 794 792 791 789 785 782 783 783 782 782 782 777 773 771 769 767 765 763 762 762 760 759 760 762 762 764 765 765 767 767 765 767 770 767 763 762 762 762 764 764 764 764 765 767 767 766 766 763 756 755 751 749 752 747 742 743 739 737 735 730 728 727 725 722 721 720 717 716 715 715 714 710 708
806 803 801 799 798 797 796 795 794 794 793 792 791 792 795 796 795 795 795 791 785 782 782 781 781 780 775 772 771 770 772 770 766 764 762 761 761 762 764 765 767 768 766 768 768 768 770 768 762 759 759 761 762 762 763 764 764 765 766 768 768 764 759 754 752 749 747 750 746 743 744 736 732 731 727 725 723 719 716 715 716 713 712 712 712 710 707 705
805 803 801 799 797 797 796 795 795 794 794 793 793 794 795 795 795 794 795 796 790 782 781 780 779 779 774 772 771 770 773 772 770 767 763 763 763 764 766 767 769 769 768 769 770 773 773 763 758 760 760 761 761 760 761 762 764 765 765 768 767 760 760 757 751 747 745 746 745 744 744 734 727 727 723 720 717 714 712 711 712 712 709 708 708 707 705 703
804 802 800 798 797 796 795 795 795 794 794 794 794 794 795 795 794 794 795 797 794 784 779 780 779 778 776 773 771 771 772 771 771 769 765 764 765 764 766 768 769 769 768 769 770 774 770 759 758 762 762 762 764 761 761 763 764 764 763 765 762 758 759 756 750 747 745 746 743 745 745 732 724 727 720 715 714 711 710 708 708 708 706 707 708 706 705 702
803 801 800 798 797 796 795 795 794 794 794 794 794 794 795 794 793 794 793 796 795 785 779 779 779 778 775 773 772 771 771 770 769 768 765 765 766 765 767 769 769 768 768 770 772 774 768 760 759 762 762 764 766 764 761 761 764 764 759 757 756 754 754 752 750 750 752 752 743 743 748 732 722 726 719 713 714 710 709 707 704 704 703 704 704 702 701 700
803 801 799 798 797 796 795 795 795 795 794 794 794 794 794 794 793 793 793 795 794 788 784 781 780 779 775 776 773 769 773 772 767 767 765 765 765 766 768 769 770 770 770 772 772 771 766 760 761 763 763 764 766 765 760 759 765 765 755 749 750 752 753 752 751 754 757 752 742 742 752 743 726 720 716 714 713 709 708 708 705 704 702 701 700 698 698 699
802 800 799 798 797 796 795 795 796 795 794 794 794 794 794 793 792 792 793 798 797 791 788 783 781 780 777 778 775 773 779 776 767 767 766 765 765 765 768 770 771 771 770 774 771 764 761 760 761 763 763 765 766 763 757 756 764 760 748 746 749 750 753 752 752 755 753 749 745 741 749 753 735 716 710 710 711 709 707 707 706 705 703 701 699 697 697 697
801 800 799 798 797 797 796 796 796 795 794 794 793 793 793 791 792 792 793 800 800 792 789 786 781 778 778 778 777 778 781 776 774 771 765 765 766 765 769 769 771 770 769 775 771 760 758 759 758 759 763 764 761 756 753 753 757 752 744 746 749 750 750 749 751 754 750 752 751 741 745 753 736 713 707 706 708 708 704 703 705 703 702 701 698 697 696 695
800 799 798 797 797 796 796 795 795 794 794 793 792 792 791 791 792 792 794 801 801 792 789 786 781 780 781 780 779 780 779 776 778 773 765 767 766 765 769 769 769 770 768 772 770 760 757 755 754 756 760 759 753 751 751 751 752 748 746 748 749 750 749 749 752 752 754 756 751 740 741 747 730 707 707 709 705 703 698 697 700 699 699 699 696 695 694 693
800 799 798 797 796 795 795 794 793 793 793 792 792 791 790 791 792 797 803 805 802 796 790 788 786 786 787 785 782 781 780 779 777 773 769 769 768 766 768 768 769 770 770 772 769 762 756 753 754 755 754 751 749 749 749 749 749 747 749 751 751 752 751 752 753 754 760 755 743 735 733 743 735 704 698 704 695 692 693 694 696 695 695 697 696 694 692 692
800 799 798 797 796 795 795 793 792 792 791 791 791 790 790 793 798 807 811 806 802 799 793 792 792 790 791 793 789 783 782 781 777 777 776 773 772 770 769 770 771 770 770 770 766 760 756 754 754 751 748 747 749 750 749 749 749 749 751 753 755 756 755 758 759 760 762 748 735 731 729 741 737 700 689 695 687 686 690 691 693 693 693 696 697 695 693 691
800 799 798 797 796 795 794 793 792 791 790 789 789 790 791 796 807 817 814 805 804 803 798 797 795 793 795 797 793 789 787 783 779 780 781 781 779 776 776 778 776 773 772 772 769 760 751 748 748 746 744 747 749 750 749 750 751 752 753 756 761 761 758 762 764 762 759 745 732 731 731 735 724 694 687 691 686 687 688 688 691 690 690 694 694 694 692 692
800 799 798 797 796 795 794 793 791 790 789 787 788 790 793 802 813 819 815 809 808 804 800 800 797 796 798 796 792 792 790 786 782 781 782 784 782 777 780 783 780 780 779 778 777 769 755 745 743 744 743 745 746 747 747 749 753 755 754 756 762 764 763 763 762 759 755 742 729 731 735 730 714 693 686 685 682 684 685 685 687 686 686 688 690 691 691 691
800 799 798 797 796 795 794 793 791 790 788 785 787 791 799 812 818 816 814 811 808 803 802 803 800 797 798 797 795 795 793 787 784 784 783 784 783 780 781 781 780 781 781 781 779 776 768 754 743 741 743 745 744 743 743 743 750 752 749 751 754 756 758 757 754 753 748 738 732 737 736 723 707 692 684 681 681 682 682 683 685 684 684 685 688 689 689 689
800 799 798 797 796 795 794 793 791 789 787 788 792 799 809 821 822 817 815 811 807 805 805 805 803 799 797 797 797 796 795 792 787 787 785 785 787 785 780 778 779 779 780 782 778 774 772 759 744 740 741 744 744 741 740 742 749 749 747 751 752 746 746 748 747 744 745 744 741 738 727 710 699 687 681 682 681 680 682 683 684 684 682 685 688 688 687 687
800 799 798 796 796 795 793 793 791 789 789 791 799 809 816 819 817 815 812 808 808 808 807 805 803 803 801 799 796 794 794 794 791 791 788 785 785 783 781 777 776 776 777 780 779 775 769 753 740 739 739 739 742 741 739 741 747 751 751 750 746 740 740 746 747 746 752 752 738 726 718 706 697 684 674 675 676 675 679 680 682 683 683 684 685 686 686 686
799 799 798 797 796 795 793 793 791 790 791 794 802 812 816 813 811 811 809 807 808 809 810 809 807 806 806 804 799 795 794 794 793 795 793 788 782 779 778 775 772 773 773 775 777 775 770 752 736 738 738 734 737 739 739 739 742 750 753 745 740 743 744 748 752 750 754 752 733 720 716 710 705 688 670 671 675 673 676 677 678 681 683 683 681 682 684 684
799 799 799 798 798 796 794 793 792 792 793 799 806 811 813 811 808 808 808 807 808 808 809 812 809 807 808 808 802 796 796 796 796 798 797 791 783 776 775 774 771 770 770 774 777 776 776 760 736 734 738 735 738 743 743 739 739 743 746 743 746 751 749 750 753 749 749 750 734 719 713 706 702 689 671 672 674 670 672 676 676 678 680 680 678 680 682 682
798 799 801 800 799 797 796 795 794 794 797 804 811 812 812 810 806 806 807 808 809 808 809 811 811 809 807 807 803 798 798 799 800 802 797 792 785 775 774 775 771 770 771 774 776 774 777 769 745 735 740 742 746 750 745 740 741 743 745 748 751 753 750 749 751 746 744 745 735 723 713 696 684 678 671 672 671 668 670 673 674 675 675 675 677 678 680 680
799 801 803 802 799 797 797 795 795 798 803 810 815 813 811 810 806 805 806 806 807 806 808 810 811 810 806 802 802 801 800 800 801 802 797 793 789 776 772 775 772 769 769 770 772 770 774 775 756 740 742 745 745 746 740 737 742 746 746 749 748 749 751 748 745 742 740 743 740 733 717 686 667 666 666 666 667 667 668 669 670 672 672 672 673 674 676 677
801 804 805 802 799 798 797 797 803 809 810 813 816 812 810 809 807 805 805 806 805 804 806 807 808 808 804 802 802 802 802 802 802 802 797 793 792 782 773 772 771 770 769 769 770 768 770 773 761 746 744 741 733 733 733 731 737 744 744 743 741 743 748 745 739 735 735 736 731 728 718 683 658 660 661 660 664 665 665 668 669 669 670 671 670 671 673 675
804 808 809 803 799 798 798 803 814 819 814 813 815 813 810 810 808 807 806 805 805 804 805 805 805 806 804 802 801 801 803 803 801 801 797 791 790 784 774 769 770 773 773 770 767 763 764 768 763 751 741 732 727 731 732 727 733 743 746 744 742 741 743 741 735 729 732 731 721 726 726 687 652 654 658 656 660 660 662 667 668 668 668 669 670 671 673 673
809 811 808 803 801 798 800 808 816 818 815 814 815 813 811 811 810 809 807 806 806 805 805 804 804 804 802 801 800 801 803 802 797 795 794 792 786 778 772 771 772 773 772 770 765 761 761 763 760 745 730 727 734 740 739 734 738 743 744 745 745 741 738 737 732 727 731 728 721 730 728 685 653 656 657 654 656 656 657 661 664 665 665 667 670 672 673 672
816 815 810 807 801 797 804 815 817 816 816 816 814 812 812 812 811 811 810 808 807 807 806 805 804 804 803 802 801 801 801 801 797 792 794 795 784 772 771 773 773 773 770 767 765 762 761 760 758 745 730 726 732 736 737 737 740 742 741 743 744 740 738 735 731 732 729 716 715 726 713 675 657 661 658 655 655 652 652 653 656 660 662 665 670 671 672 672
816 815 814 811 804 802 812 821 821 819 819 820 819 817 816 813 811 812 812 810 808 808 807 805 804 803 803 803 803 800 800 802 799 793 794 794 784 772 770 771 772 772 768 762 760 761 761 759 758 754 745 739 736 735 735 736 737 739 739 741 741 739 739 734 730 732 724 709 710 716 697 667 658 661 660 658 656 651 649 649 650 655 658 661 666 668 671 671
816 816 817 815 812 813 820 825 825 824 823 823 822 820 821 819 814 813 812 810 808 808 806 804 804 804 804 806 807 804 801 802 801 797 796 795 787 776 770 770 770 768 764 759 756 757 761 760 759 760 756 752 749 744 739 738 739 737 736 737 737 735 735 733 730 727 720 712 710 703 690 676 667 663 661 659 657 653 649 647 648 651 655 658 661 663 666 668
820 823 827 824 819 819 822 825 828 828 826 826 824 822 825 825 821 816 812 810 810 809 807 805 805 807 809 811 813 808 802 801 801 800 798 794 788 779 772 769 768 765 762 760 757 758 763 761 757 758 754 749 748 743 736 737 739 738 736 736 736 734 731 730 728 722 717 715 706 691 689 689 676 665 661 658 655 653 650 647 646 646 650 654 656 658 660 664
823 828 833 831 827 826 825 825 828 829 827 827 826 825 825 825 826 823 816 812 811 809 809 808 806 808 811 813 814 810 803 801 799 796 794 792 789 784 775 767 765 765 764 763 759 760 765 762 755 755 752 744 739 734 730 734 739 740 739 738 736 733 730 727 724 720 718 716 705 692 692 690 677 667 662 657 653 651 648 646 643 642 644 647 650 653 656 659
827 830 833 832 830 831 831 830 830 829 826 826 825 825 826 826 827 826 820 816 813 809 812 812 808 808 810 811 813 809 805 804 802 797 794 792 791 789 781 772 767 767 767 766 762 760 765 763 755 756 754 742 731 726 724 729 737 738 737 738 737 733 730 726 722 718 717 713 704 698 693 684 673 667 661 655 652 649 645 642 641 639 639 640 643 646 650 654
830 831 832 832 831 832 833 832 831 828 826 828 826 825 828 827 825 826 823 820 816 811 813 813 810 809 809 809 811 808 803 804 805 801 797 796 795 791 785 778 774 772 771 770 766 763 766 764 757 758 756 739 725 723 722 726 734 735 732 733 733 729 723 720 717 715 712 706 698 693 685 673 665 663 661 656 650 645 641 638 637 636 635 636 637 640 643 648
833 833 833 832 831 833 833 831 833 830 826 829 829 827 829 826 825 828 824 818 817 813 812 813 812 809 807 806 807 804 800 800 802 799 796 798 797 790 785 781 780 780 778 774 770 767 769 767 760 759 757 740 725 723 724 727 733 732 728 728 728 726 722 719 717 716 714 707 696 686 680 674 666 660 657 653 647 642 637 632 631 630 630 632 632 634 637 641
833 833 834 833 832 834 834 831 834 831 826 829 830 829 829 826 826 829 823 816 815 813 811 814 813 810 807 804 800 797 796 795 794 791 791 793 792 789 788 786 784 785 783 778 775 771 771 772 767 764 761 744 726 726 730 728 727 727 729 731 731 728 725 720 716 715 716 712 702 692 687 681 672 662 655 648 643 639 632 627 624 621 622 625 627 629 632 635
Wind_Speed
21 21 21 21 21 21 21 21 21 21 20 20 20 19 18 17 17 17 17 16 16 17 16 17 18 19 19 19 20 20 23 25 24 19 7 2 5 4 4 3 4 4 2 1 3 2 4 5 6 10 6 2 1 1 1 1 2 2 2 2 5 4 3 3 2 2 2 2 5 6 4 3 5 6 4 4 5 5 7 6 3 4 1 2 4 9 14 17
22 21 21 21 21 22 22 21 21 21 20 20 20 19 19 18 17 17 16 16 16 16 17 17 18 19 19 19 19 20 23 24 19 13 4 4 6 4 3 2 4 5 3 1 2 3 4 3 4 7 5 2 1 0 1 1 2 2 3 2 5 3 3 4 3 3 2 3 5 7 6 4 3 4 4 4 7 6 7 8 5 6 4 3 9 11 14 21
22 22 22 21 21 21 21 21 21 20 20 20 19 19 19 18 17 17 16 16 16 16 17 17 18 19 19 18 18 19 22 18 8 3 2 5 6 5 4 2 2 3 2 1 1 2 2 1 3 4 3 1 1 1 1 1 1 2 2 3 5 1 2 4 3 4 5 5 7 7 6 7 6 3 2 3 7 7 6 8 7 8 7 6 9 9 9 17
22 22 22 22 21 21 21 21 21 20 20 20 19 19 19 18 18 17 16 16 16 16 16 17 19 19 18 18 17 18 16 8 1 1 2 4 5 6 5 2 2 2 1 2 1 3 2 2 2 2 2 1 3 2 1 2 1 2 3 4 4 1 4 5 5 6 7 6 6 6 5 8 8 4 3 4 6 7 6 7 7 8 7 7 7 6 4 9
22 22 22 22 22 21 22 21 21 21 20 20 20 19 19 18 17 17 16 16 15 15 16 17 18 18 17 17 16 15 8 3 1 4 2 2 4 6 5 2 4 4 3 2 0 0 1 1 3 3 3 1 3 2 1 4 2 1 3 4 3 2 5 6 5 6 6 6 6 5 4 6 6 5 5 5 6 6 5 6 7 8 7 7 6 3 3 3
23 23 22 22 22 22 22 21 21 21 20 20 20 19 18 18 17 16 15 15 15 14 15 16 17 16 15 15 13 8 3 2 4 4 3 2 3 6 3 3 6 5 4 3 1 2 3 3 4 3 2 1 1 1 3 3 1 2 3 3 4 5 5 4 3 6 5 5 6 5 4 4 5 7 6 6 8 8 8 7 6 6 6 6 3 2 1 3
23 23 23 23 23 22 22 22 21 21 20 20 20 19 18 17 16 15 15 14 14 13 14 14 15 14 13 12 8 3 3 1 4 4 4 2 3 5 2 3 4 4 2 2 2 2 3 4 3 2 3 2 0 2 4 3 2 3 3 4 5 5 5 5 4 7 6 6 8 5 3 4 7 7 4 7 10 9 10 10 8 5 2 4 3 3 3 4
24 24 23 23 23 22 22 21 21 21 21 20 19 19 18 17 16 16 15 14 13 12 12 12 12 12 12 9 4 3 2 3 4 5 4 2 3 4 1 2 2 1 2 2 2 2 3 4 2 2 3 1 1 2 3 3 1 3 3 5 3 3 5 6 5 7 7 6 7 5 4 7 10 6 4 10 11 10 10 10 10 4 3 3 4 5 4 4
24 24 24 24 23 22 22 22 22 22 21 19 19 18 18 18 18 18 16 14 12 11 11 10 10 10 10 6 3 3 2 3 6 6 3 1 3 3 1 2 2 3 2 1 1 3 2 1 1 1 1 2 1 2 2 3 2 2 3 4 3 5 6 5 5 6 7 5 4 4 6 9 8 4 5 11 12 12 10 10 10 5 5 5 6 6 5 6
25 24 24 24 23 23 22 22 22 21 20 19 19 19 20 21 20 20 17 14 11 10 10 7 8 8 7 4 4 4 2 3 5 6 3 2 4 4 3 3 3 3 2 1 2 3 2 2 3 1 2 1 1 2 1 2 3 3 4 5 5 7 7 4 5 7 6 4 6 5 8 10 5 2 5 8 10 10 9 10 10 7 6 7 7 7 6 6
25 24 24 24 23 22 22 22 22 20 20 20 21 22 23 22 20 18 17 14 11 9 7 5 6 6 4 3 4 1 2 1 3 5 4 4 6 7 6 5 5 5 3 2 4 4 3 4 3 1 1 1 2 3 3 3 3 5 5 6 6 6 6 4 6 7 4 4 7 6 7 7 2 3 6 8 8 5 6 9 10 8 7 7 7 6 5 5
25 25 24 24 23 22 22 22 21 20 20 21 23 23 23 21 17 15 14 12 9 6 4 3 3 4 4 2 3 3 3 2 5 7 7 7 9 11 10 9 9 8 6 4 5 4 3 2 2 2 1 1 2 3 3 3 2 4 4 5 7 7 7 6 6 5 2 3 5 4 4 4 2 6 9 9 8 4 4 8 9 8 7 6 6 6 5 5
25 25 24 24 23 22 21 20 20 20 20 21 22 23 22 19 14 12 12 9 5 2 1 1 2 2 3 2 4 3 3 5 9 9 9 9 11 12 13 13 13 12 10 8 9 6 3 2 3 1 2 1 2 3 2 3 2 4 3 2 6 7 7 5 3 2 3 4 4 3 4 5 5 9 11 9 7 4 4 7 8 8 7 6 5 5 5 6
25 25 24 24 23 22 21 19 19 19 20 20 20 20 20 16 12 11 10 6 2 1 1 1 1 1 2 3 5 2 5 9 10 9 10 9 10 13 14 13 14 15 14 13 13 8 4 3 3 1 2 3 2 4 4 4 3 3 3 2 3 3 5 6 3 4 5 5 1 3 5 6 6 9 11 8 5 4 6 8 8 7 7 6 5 6 6 7
26 25 24 24 22 21 20 19 18 18 19 18 16 18 18 14 11 10 8 2 2 2 2 2 0 1 2 4 4 4 8 8 8 10 12 10 8 9 11 9 9 11 12 13 12 7 4 2 1 1 2 2 0 2 4 4 3 2 3 4 2 2 4 7 6 3 2 4 4 2 4 6 6 9 9 7 5 3 6 9 8 8 9 7 6 6 6 7
25 25 24 23 22 20 19 18 17 17 18 16 15 17 17 13 11 9 3 2 3 2 2 2 1 2 1 2 4 6 6 5 11 16 14 11 8 9 10 9 8 7 7 9 8 5 3 2 1 1 1 2 1 1 2 4 4 2 0 3 4 4 3 4 5 3 2 3 5 1 3 5 5 7 9 8 7 6 6 9 10 10 10 9 7 6 7 7
25 25 24 23 21 19 17 17 16 17 17 14 15 16 13 12 9 4 3 4 3 1 2 1 2 1 0 2 5 5 5 11 19 19 15 13 11 12 10 6 5 4 4 5 5 3 1 1 1 1 1 1 2 3 2 2 4 3 1 3 4 5 3 2 5 5 3 4 5 3 5 7 6 8 11 10 8 6 6 8 10 10 9 9 7 7 8 8
26 25 24 22 20 17 16 17 16 16 14 14 18 15 10 9 5 4 3 5 3 1 1 1 1 2 2 7 8 7 11 17 19 17 16 14 9 10 9 4 2 5 6 5 2 1 2 1 1 1 2 2 2 4 1 4 4 4 4 4 4 4 4 4 3 4 5 4 5 6 9 11 8 7 9 9 7 5 7 8 8 10 10 9 8 7 8 8
25 24 23 22 20 16 15 15 14 14 12 14 17 11 8 7 2 2 2 4 3 1 1 3 2 2 4 8 10 13 16 14 11 12 15 14 6 3 4 1 2 3 3 3 4 2 0 1 2 0 2 2 3 5 7 8 8 8 7 5 5 6 5 5 4 5 5 5 7 8 11 11 8 6 7 9 7 5 7 7 7 9 9 9 8 8 8 8
25 24 23 21 18 15 14 13 12 12 13 16 15 7 6 7 3 2 4 3 1 1 2 3 1 1 5 7 10 16 16 8 6 11 17 13 4 2 1 2 3 1 1 2 3 2 2 1 3 5 6 7 8 7 8 8 7 7 7 5 7 7 7 6 5 5 4 4 8 9 10 11 7 7 8 9 9 7 8 8 7 8 8 8 8 9 9 9
26 24 22 19 17 14 12 10 10 11 12 16 15 6 2 4 3 3 5 4 3 3 4 5 3 4 9 11 12 12 7 4 6 11 18 12 3 3 2 2 4 1 2 2 1 2 0 3 7 7 7 7 7 5 5 6 6 6 6 7 7 6 8 8 6 7 4 4 7 5 8 12 9 8 9 10 11 9 9 8 8 9 8 7 7 10 10 8
26 23 20 18 16 13 9 7 8 10 11 15 14 6 2 3 2 2 2 4 6 3 3 6 4 5 10 13 10 3 2 4 6 8 15 12 5 4 3 2 2 3 3 2 2 4 2 6 10 8 5 3 4 4 4 6 7 6 5 5 7 5 6 7 6 6 4 4 6 5 8 13 12 10 11 12 11 9 9 9 9 9 8 7 8 9 9 8
26 20 18 16 15 12 7 4 6 8 9 11 10 5 3 6 5 4 1 1 5 4 1 3 3 3 7 7 3 0 1 2 3 7 13 10 4 2 1 1 1 3 2 1 2 3 4 7 6 4 2 1 5 5 4 5 4 5 4 4 6 6 5 5 4 4 4 4 6 8 9 12 12 9 10 12 11 9 8 8 8 7 7 8 8 8 8 9
24 17 15 14 13 12 5 2 4 7 7 6 7 6 6 9 7 3 1 2 3 5 2 2 1 2 5 7 6 2 2 1 1 5 10 6 4 1 2 1 1 1 2 3 3 4 8 10 4 3 4 4 6 7 4 4 4 4 5 5 6 7 7 7 6 6 6 4 6 7 8 9 7 6 8 8 6 6 6 6 6 6 6 6 6 7 7 8
23 15 12 12 12 11 3 2 4 9 8 2 4 6 8 11 8 1 1 3 2 5 3 1 1 2 6 11 13 5 2 1 1 3 6 3 2 2 1 0 0 2 4 3 3 4 9 9 3 4 7 5 6 7 6 5 4 4 5 8 10 9 9 10 9 6 5 4 4 2 3 5 4 5 8 5 3 5 3 4 5 5 5 5 6 7 6 7
22 14 10 10 11 10 2 1 5 10 6 2 1 6 9 11 8 0 2 3 2 4 5 4 1 4 8 8 11 5 1 2 2 3 8 4 1 0 0 2 0 2 4 2 2 3 5 4 1 3 6 4 6 7 6 5 3 4 4 7 9 8 8 9 8 4 2 4 3 2 1 6 7 8 10 7 6 8 5 4 6 5 5 5 6 6 6 6
21 13 10 8 9 10 3 0 6 6 2 0 2 6 9 11 6 2 3 5 3 3 4 5 2 6 8 5 7 5 1 5 4 5 8 5 3 1 0 3 1 2 2 1 2 2 3 3 2 3 4 3 5 5 5 7 4 4 3 5 6 6 7 7 6 5 3 3 4 2 2 5 9 8 6 6 8 10 8 7 6 6 6 7 7 7 6 7
19 13 9 7 9 9 4 4 7 2 0 3 5 8 11 9 1 3 5 4 3 3 1 3 4 6 7 6 6 3 3 5 3 3 6 5 2 2 1 3 3 4 2 3 2 3 3 3 4 4 3 4 5 4 4 7 4 5 3 3 4 5 6 5 4 4 3 3 5 3 6 3 8 6 1 4 6 8 9 9 7 7 8 8 7 8 7 7
17 12 8 7 8 8 7 8 6 2 2 5 8 12 10 2 3 4 5 2 2 3 1 2 6 6 6 6 4 2 3 2 1 5 6 5 2 2 1 3 3 4 3 5 4 6 4 4 5 4 4 5 4 2 5 7 5 4 1 2 1 1 3 2 2 2 1 4 5 5 7 3 7 7 2 3 6 9 10 8 7 8 8 8 8 8 8 7
14 11 9 8 7 8 9 9 6 4 6 8 12 12 3 4 4 5 4 0 2 3 2 3 5 5 7 7 5 5 5 2 2 5 4 3 4 3 1 1 0 1 3 2 5 9 8 5 3 3 5 5 3 2 4 6 6 1 3 2 3 3 1 1 0 0 1 5 5 6 9 5 6 8 5 6 6 8 9 6 5 8 8 8 8 7 7 6
11 10 9 8 8 8 8 7 9 10 12 14 13 5 3 3 4 5 2 2 2 4 4 4 5 5 7 6 4 7 7 4 4 5 4 4 5 5 3 3 3 2 2 2 4 7 8 3 2 3 5 4 2 3 1 1 3 2 2 2 2 2 2 2 1 1 3 5 3 3 8 9 8 9 4 5 6 5 7 7 6 8 8 7 6 6 6 6
9 9 9 10 9 9 6 7 12 14 16 15 8 2 4 4 4 3 2 3 2 3 3 4 5 5 6 4 2 6 6 5 4 4 4 4 3 4 2 2 3 4 4 4 6 8 6 2 2 3 2 4 3 2 2 3 3 3 2 2 1 2 1 1 1 1 4 5 2 1 4 7 11 12 8 8 8 5 6 5 6 7 7 6 6 7 6 6
7 10 10 11 10 9 8 10 12 13 15 10 1 4 6 5 3 2 3 2 2 3 2 3 6 5 5 4 4 5 3 3 4 5 4 2 2 4 2 1 1 2 2 3 6 7 4 2 1 2 1 3 3 1 2 1 2 3 3 3 2 2 2 3 3 2 3 5 5 3 3 5 6 9 11 13 13 9 8 7 7 8 8 8 8 7 6 6
6 11 12 13 12 9 10 11 11 13 14 7 5 5 7 5 1 3 3 3 3 3 3 2 6 6 3 2 4 4 2 3 4 6 5 3 4 4 4 3 1 1 1 3 2 2 3 3 1 1 1 1 2 3 3 2 3 4 3 3 2 3 2 3 3 3 3 3 4 2 2 4 4 3 5 6 6 6 7 7 7 7 8 7 6 6 7 7
5 10 14 17 16 11 10 11 12 13 12 8 7 6 7 3 3 1 2 4 3 3 5 3 3 5 4 3 3 3 1 2 5 5 4 4 3 3 3 3 2 1 1 2 2 2 4 6 4 3 1 2 4 5 3 3 3 2 2 2 2 3 3 2 3 4 2 2 3 2 3 5 4 6 8 7 7 5 5 4 5 7 8 5 5 6 7 7
4 8 14 20 20 12 9 11 13 13 8 6 6 5 4 2 3 1 2 2 1 3 5 5 3 3 5 4 4 4 1 2 4 5 3 3 3 2 2 3 3 3 2 1 2 2 4 6 4 4 4 5 7 7 3 4 2 0 2 2 1 1 2 2 3 1 1 3 4 3 5 5 4 8 11 12 14 12 9 7 7 7 6 5 6 7 7 7
4 4 11 21 23 12 9 12 14 12 6 6 6 4 1 2 3 2 1 1 2 1 3 4 3 2 3 3 4 7 5 2 3 4 3 4 3 2 3 3 4 5 4 2 2 2 4 8 5 7 11 7 4 3 4 4 3 2 2 1 1 2 0 1 2 2 1 4 4 3 7 6 3 6 5 4 9 11 10 10 10 7 6 7 8 7 8 8
2 2 6 18 23 12 10 13 12 9 6 5 5 4 1 0 2 2 0 1 2 2 4 1 1 1 2 2 4 6 6 4 4 4 2 3 2 2 3 3 4 5 4 3 2 1 2 8 5 5 9 2 5 1 5 5 6 5 2 2 1 1 1 2 1 2 2 4 4 3 6 6 5 7 6 2 4 7 7 7 8 8 8 8 8 7 8 8
2 2 2 16 22 10 8 11 8 7 7 5 4 2 0 1 2 1 1 1 0 2 2 2 2 1 1 2 3 5 4 3 5 4 2 1 2 3 2 1 3 4 3 5 3 1 1 4 3 1 2 2 3 0 2 2 5 5 3 1 2 2 1 2 1 1 1 3 5 2 3 6 7 6 6 6 7 7 7 6 6 9 9 9 8 7 7 7
4 3 2 18 21 7 5 9 7 6 5 3 1 1 1 1 2 3 2 1 0 1 1 2 2 1 3 3 3 3 2 3 3 2 1 1 3 5 3 1 2 5 2 5 5 3 1 2 4 2 4 2 2 3 4 3 2 3 3 2 3 2 0 1 2 2 2 2 3 3 5 9 6 4 6 9 8 8 8 8 7 8 8 8 8 8 8 8
4 3 3 19 20 5 3 8 6 4 2 2 1 2 2 2 2 5 4 1 1 1 1 2 3 2 3 3 3 2 1 2 2 0 2 2 1 3 3 3 2 6 5 4 4 3 1 2 5 5 2 4 6 3 6 7 3 3 3 2 3 3 2 2 3 3 3 3 3 3 6 12 8 4 6 8 6 7 7 7 7 7 7 8 8 8 8 8
4 3 4 19 19 4 4 5 2 2 3 1 2 1 3 2 1 4 4 2 1 0 1 1 2 2 2 3 3 2 1 2 2 0 2 4 2 4 5 4 5 5 4 5 5 3 3 2 4 6 7 9 7 3 1 3 3 3 3 1 1 1 2 2 4 2 2 4 5 2 4 12 8 4 6 6 6 6 5 4 5 6 7 7 7 7 7 9
3 1 4 20 17 1 6 5 3 3 2 2 2 1 2 2 1 3 3 3 3 1 2 2 1 1 2 2 3 3 2 1 3 2 2 4 5 7 7 7 7 5 2 3 4 3 3 2 3 6 7 5 3 5 4 2 5 3 4 2 2 2 2 5 5 1 1 3 3 2 5 10 5 3 4 6 7 7 6 6 6 6 6 5 6 6 6 7
1 3 3 17 18 7 6 3 1 3 4 3 4 4 4 1 1 3 3 3 2 0 2 2 1 1 2 2 3 3 2 0 3 4 2 2 5 7 7 6 5 3 2 2 2 2 2 2 3 7 7 3 3 3 3 2 2 1 3 2 3 5 7 7 5 1 2 5 5 3 7 10 4 2 2 6 7 9 9 9 9 8 6 5 5 5 6 6
2 1 3 10 18 13 5 2 3 1 3 3 4 5 5 2 2 2 2 3 2 2 1 2 2 2 3 3 4 4 2 1 3 3 1 2 5 7 6 7 6 3 4 6 6 3 2 3 3 4 6 5 6 5 4 5 3 2 2 2 4 6 6 7 4 2 3 4 5 4 8 12 9 6 5 6 8 11 11 11 10 9 8 7 7 6 6 7
2 2 3 6 10 8 2 1 3 2 1 3 2 3 4 4 5 3 2 2 2 1 2 2 2 3 3 4 4 5 3 2 4 3 3 3 4 5 7 10 8 5 7 13 10 1 1 3 3 4 5 6 7 9 9 9 5 3 4 5 9 10 8 6 2 2 4 3 3 7 11 15 18 16 12 10 10 12 12 12 11 9 9 9 9 9 9 8
2 1 2 2 3 4 3 3 4 2 1 1 1 3 3 3 5 5 2 1 1 2 2 1 2 4 4 5 4 4 4 3 3 2 3 5 4 6 11 10 6 6 13 15 9 3 2 3 4 8 11 10 10 12 12 9 5 3 5 8 13 14 12 7 3 5 7 5 5 9 10 14 18 18 16 15 13 12 12 12 12 10 9 10 10 9 11 10
3 1 1 0 1 1 2 3 4 3 3 0 1 2 3 3 4 4 3 3 3 3 3 2 4 4 5 5 2 3 5 5 3 3 3 4 3 6 10 7 3 7 14 10 5 4 2 3 5 10 15 16 14 11 6 3 3 3 3 8 16 17 15 10 7 9 8 4 7 13 15 15 16 16 16 15 14 13 13 13 12 11 10 11 12 11 11 11
3 1 1 1 1 2 2 3 4 3 4 3 2 3 3 3 4 3 3 3 5 4 3 3 8 8 7 5 2 2 4 4 4 4 2 3 5 4 5 6 5 8 11 8 6 4 1 3 8 10 13 16 15 11 7 5 3 3 3 7 14 15 14 10 9 10 8 8 11 15 17 16 13 12 14 14 14 13 12 11 11 12 13 13 13 12 12 12
2 1 2 3 2 2 2 3 3 2 3 3 2 2 2 2 4 4 3 1 2 4 2 3 10 11 8 5 3 4 4 3 5 7 3 4 6 3 1 2 4 8 10 7 6 5 2 5 9 8 8 11 11 12 13 11 5 3 5 14 17 15 15 12 10 11 9 10 14 15 13 12 9 10 12 12 12 12 10 10 11 12 13 14 14 13 13 12
2 2 1 3 2 3 2 2 2 2 2 2 1 1 2 3 3 5 4 4 4 3 3 5 10 10 6 5 4 6 8 6 9 12 9 6 6 3 2 3 4 7 8 7 6 5 4 5 7 6 5 8 11 14 16 13 4 3 11 23 23 18 15 13 12 10 7 11 18 17 12 11 13 14 13 10 10 12 12 11 11 11 13 15 15 15 14 13
3 0 2 3 1 2 2 2 2 2 0 2 2 1 2 5 4 3 3 4 3 4 4 4 7 6 5 7 8 7 9 10 11 12 8 7 8 6 4 6 5 4 5 6 6 4 5 5 5 5 4 8 14 16 15 11 4 3 13 21 20 18 16 14 14 11 7 7 10 10 8 11 15 16 15 13 11 10 11 10 10 9 10 14 16 15 14 14
Wind_Direction
343 343 342 342 341 340 339 338 338 336 337 335 334 334 334 334 332 332 330 330 329 328 329 327 325 326 325 326 327 324 323 322 323 321 308 350 9 357 324 273 212 222 233 338 347 350 14 23 17 9 20 80 59 173 171 166 127 98 107 191 236 226 206 192 181 197 197 271 307 327 353 357 309 318 324 326 346 332 309 296 294 352 279 188 339 341 20 42
342 341 341 341 340 339 338 337 336 336 335 333 333 333 333 333 331 331 329 328 329 329 329 327 326 326 325 326 327 325 324 323 318 306 295 34 34 32 358 295 224 233 238 276 354 51 53 14 4 16 30 45 317 168 171 222 157 160 137 218 241 203 219 226 227 281 289 278 305 312 317 318 292 309 335 319 305 317 315 297 318 338 297 294 337 356 48 57
341 341 340 340 338 337 337 335 334 333 332 332 333 333 332 330 330 329 328 328 328 329 329 327 327 325 325 326 324 324 324 325 325 306 10 39 36 22 1 319 230 215 226 221 350 24 50 352 2 27 38 16 298 80 114 236 199 192 167 238 241 179 289 259 246 285 283 287 304 303 315 316 291 282 300 289 286 288 283 281 300 307 301 311 324 342 45 71
341 340 340 339 338 337 336 334 334 333 333 333 333 332 329 327 328 326 325 326 327 329 328 328 326 324 327 325 321 322 325 337 5 242 15 26 16 2 348 350 100 139 171 181 266 300 277 305 358 34 64 9 316 45 133 233 216 186 179 220 230 3 319 274 264 281 276 283 286 285 318 311 296 277 249 261 279 280 263 251 252 261 277 293 297 317 353 92
340 340 340 338 338 337 336 335 334 334 334 333 331 329 328 326 325 324 323 323 325 326 327 328 326 327 328 322 320 320 335 43 271 283 329 3 359 344 339 39 100 108 111 118 16 261 194 20 47 48 60 31 344 35 230 234 175 185 208 215 227 265 289 266 259 268 265 274 278 282 287 279 290 290 259 235 243 258 253 239 233 236 240 254 264 283 333 92
341 340 339 338 338 337 337 336 335 335 334 332 330 328 327 325 324 323 322 322 324 324 326 328 327 330 327 321 323 326 25 85 279 303 325 334 338 328 341 88 101 99 101 103 70 91 112 86 71 61 59 36 14 166 253 259 151 237 259 241 236 232 254 276 284 276 277 281 274 268 255 253 287 287 265 231 234 240 252 260 258 253 231 219 228 201 112 125
341 340 339 338 338 337 337 336 335 334 332 330 328 328 327 326 328 327 324 322 322 323 325 328 329 330 329 330 330 3 69 271 291 332 313 297 309 314 340 118 111 97 77 71 67 86 109 90 92 129 89 24 314 225 262 292 179 201 261 270 261 243 240 261 275 280 283 267 258 263 296 280 262 267 258 242 244 242 259 278 277 271 217 180 173 205 187 166
341 340 339 338 338 337 337 335 333 332 330 329 327 326 326 330 333 331 330 325 320 321 322 325 331 331 337 346 355 23 33 274 325 347 306 287 280 298 330 173 171 277 350 38 101 130 113 87 104 122 78 331 235 275 296 344 312 182 223 257 274 270 252 262 268 274 278 265 259 266 278 254 243 248 253 254 258 252 255 270 269 244 156 189 200 212 207 187
341 340 339 339 338 337 335 333 332 330 329 329 329 329 329 334 334 330 329 323 316 313 314 321 325 329 337 348 59 51 332 284 342 348 319 286 263 279 285 217 219 267 298 351 155 146 111 89 194 129 144 249 295 305 334 31 302 206 229 263 280 281 273 278 272 267 270 261 256 264 263 255 249 252 263 256 254 252 247 254 261 225 180 214 220 216 200 193
340 340 340 338 337 336 333 332 330 329 331 332 334 336 335 334 331 328 323 317 310 302 307 317 319 328 334 345 62 63 306 306 356 2 347 286 263 270 266 239 219 239 242 209 177 156 134 186 223 176 159 244 321 291 297 132 234 270 284 280 267 274 279 264 259 270 276 261 242 244 260 265 260 228 266 265 252 252 246 247 253 237 226 222 218 225 201 195
340 340 340 338 336 334 332 331 330 332 337 339 340 338 336 334 331 328 323 315 302 293 299 312 321 324 330 20 82 95 272 277 346 347 332 290 272 273 277 270 244 244 243 225 236 226 220 225 226 78 124 229 300 300 282 209 245 289 301 303 285 285 286 255 257 264 261 264 233 210 250 272 276 214 242 259 256 239 222 243 251 239 243 226 213 228 208 208
339 339 338 337 335 333 331 331 333 339 342 343 342 339 338 336 334 332 330 321 301 289 296 317 328 316 333 39 157 223 249 243 290 304 297 282 277 277 279 278 264 258 255 254 270 258 244 237 97 49 264 242 325 319 289 257 286 296 308 313 305 316 302 273 264 257 220 263 228 171 266 273 211 233 239 249 257 232 206 244 259 249 252 245 228 237 231 229
338 338 337 335 334 332 331 334 340 345 345 345 343 341 340 338 338 342 341 331 307 298 321 342 335 330 2 329 242 246 248 271 291 298 300 289 280 281 278 272 269 267 261 259 273 285 290 246 136 187 241 153 279 275 313 351 353 308 310 304 311 321 302 285 273 320 349 271 227 157 265 259 225 249 253 256 271 276 248 244 254 256 257 263 247 239 249 244
338 338 336 335 334 332 333 339 345 347 347 347 345 341 340 339 344 348 345 337 320 20 64 64 340 9 45 275 265 289 292 289 295 308 323 307 282 286 286 275 268 264 261 263 269 284 303 254 179 218 225 164 242 291 336 360 3 316 305 307 332 296 282 310 322 345 338 289 250 158 235 257 248 263 266 271 293 287 269 258 257 265 263 264 255 241 245 243
338 337 336 334 333 334 338 343 346 347 348 348 345 340 338 342 347 346 346 6 89 53 65 87 61 18 12 292 277 313 309 301 308 325 331 316 284 278 287 285 278 273 267 267 267 273 283 256 181 222 258 226 213 329 326 340 354 351 308 300 323 235 272 317 316 326 304 300 6 117 239 272 257 265 272 285 308 266 258 266 263 266 266 261 256 249 245 244
337 336 336 334 333 337 343 347 348 348 350 350 344 338 339 346 346 343 357 81 67 65 75 84 101 76 49 315 317 323 320 316 322 327 324 309 280 262 274 281 288 291 279 269 256 254 264 233 206 189 240 288 162 112 351 352 335 346 314 267 272 269 294 330 306 279 218 310 347 43 250 272 262 272 282 291 294 266 254 267 267 263 264 261 252 246 246 248
338 336 336 335 335 341 348 351 350 349 353 354 344 339 344 352 355 9 94 64 41 135 73 120 166 82 186 304 331 324 319 319 322 325 324 319 292 267 263 262 290 326 328 295 251 237 282 147 235 280 43 6 122 111 24 324 297 315 318 249 253 262 275 309 301 295 320 333 312 293 261 260 259 270 281 287 278 266 256 260 265 265 264 260 252 245 243 245
337 336 336 336 339 347 353 353 351 353 1 360 346 345 357 1 25 89 88 33 356 201 47 268 173 60 294 313 325 307 306 315 323 330 338 344 317 269 250 234 3 14 5 347 320 307 313 317 38 355 348 1 87 118 179 241 239 259 265 269 273 263 254 255 265 281 303 309 282 287 283 273 268 259 269 279 264 241 248 252 259 263 261 257 249 244 241 243
337 337 336 338 345 353 356 354 355 359 12 10 352 353 15 10 57 97 30 18 13 66 356 314 25 75 270 298 302 304 314 320 334 347 355 1 352 268 241 245 39 37 19 350 330 349 187 333 26 314 264 246 219 187 202 228 225 236 252 256 266 272 262 248 243 250 265 287 276 271 274 275 274 265 266 279 271 234 244 253 253 257 257 254 248 241 241 241
338 338 338 342 349 356 359 357 3 10 21 21 7 6 25 10 17 349 336 1 74 161 284 279 118 284 284 290 299 319 331 348 15 4 1 4 29 79 63 29 40 58 194 201 279 315 146 241 257 234 232 224 231 227 225 243 248 253 264 263 262 268 271 262 247 244 239 274 270 255 265 272 266 262 266 278 282 268 262 265 256 256 250 243 242 240 240 239
342 341 341 348 353 358 2 1 20 31 32 32 29 43 54 21 30 338 327 321 261 225 256 248 221 257 269 274 295 324 344 0 5 3 1 2 42 39 354 31 39 302 259 177 248 324 130 243 253 245 239 225 229 245 256 269 274 267 260 268 271 262 267 265 246 247 234 240 263 263 276 278 265 254 260 268 275 269 262 265 268 270 264 250 241 242 244 244
347 345 345 351 358 2 4 11 37 47 45 43 46 65 93 37 19 285 337 328 289 267 250 264 273 263 270 279 288 309 65 347 333 352 359 0 17 6 343 46 56 262 302 31 345 329 304 251 255 253 238 221 230 238 253 258 258 260 254 264 271 266 272 266 240 241 228 222 273 295 283 278 272 257 254 253 256 254 245 243 253 262 264 254 236 236 245 251
349 347 347 353 2 4 4 31 47 47 47 49 55 64 46 19 343 294 8 19 295 306 291 295 311 279 298 315 309 250 32 335 300 333 349 358 7 15 6 358 251 255 325 1 271 296 280 258 257 260 231 242 264 254 254 260 250 243 244 254 262 265 275 268 245 247 245 234 270 289 284 277 272 257 248 245 242 244 243 234 237 241 238 239 238 238 239 243
350 348 348 353 3 3 2 70 38 22 29 57 68 50 25 8 354 311 75 101 293 301 268 254 269 256 299 333 344 322 261 260 178 325 344 8 354 349 141 237 247 274 276 247 240 238 261 267 273 298 270 250 262 264 256 260 260 230 221 233 253 257 251 253 270 282 282 260 248 270 283 275 269 257 250 248 245 249 241 218 230 246 238 241 253 255 242 238
351 349 346 352 5 4 359 135 15 0 3 78 86 26 7 357 353 341 96 77 312 300 300 282 234 301 318 340 343 329 216 307 183 307 345 32 332 331 81 284 120 278 259 239 249 246 263 271 271 280 271 252 250 257 240 228 260 263 221 222 238 251 255 260 276 293 310 293 244 225 289 282 296 286 266 272 296 272 239 190 226 264 262 254 252 248 246 246
351 347 342 348 3 5 10 141 351 346 352 108 80 355 349 346 343 187 102 57 329 305 335 340 22 342 336 345 340 341 105 302 264 5 5 13 291 34 24 303 28 262 245 199 237 252 267 283 245 249 261 250 243 253 231 197 240 278 229 215 229 244 257 263 271 269 267 273 256 116 332 287 298 288 269 267 273 268 260 224 236 253 255 252 244 244 250 253
352 346 338 338 353 2 15 346 336 338 359 5 309 329 336 340 339 165 80 42 343 305 322 318 341 352 343 342 342 11 103 289 313 14 10 348 314 60 218 289 339 279 255 83 334 261 238 278 262 226 240 241 244 256 219 178 199 257 214 204 221 226 244 253 251 242 235 265 271 208 176 273 283 279 251 227 247 263 263 246 234 232 235 241 244 244 244 245
352 346 336 329 339 348 350 329 329 333 72 301 300 323 331 336 352 133 79 67 321 313 294 294 317 333 336 344 6 46 235 291 335 324 342 3 348 41 352 251 214 258 232 126 290 265 204 235 241 219 227 240 239 240 190 171 207 254 218 201 219 214 234 249 238 240 253 280 276 196 159 234 270 271 202 181 222 254 255 237 221 218 220 227 241 246 245 245
351 347 342 331 332 337 333 327 324 316 322 307 312 327 330 357 111 76 68 95 307 320 195 316 329 323 344 354 7 19 304 332 80 283 331 18 17 45 336 237 214 265 243 162 234 270 249 223 218 197 210 238 252 235 179 178 216 252 159 107 7 232 233 246 228 256 273 260 257 184 160 218 272 261 220 177 211 235 243 229 207 210 207 210 226 239 243 250
350 349 351 341 332 332 328 326 331 327 322 318 320 327 352 118 82 53 47 39 298 303 277 356 337 323 0 360 338 347 345 318 288 307 337 351 338 9 17 260 79 288 285 232 239 262 273 255 205 203 222 233 275 259 193 197 213 213 74 69 355 340 348 3 257 327 272 253 246 198 177 183 279 267 199 190 224 219 224 225 201 211 209 203 215 228 235 243
351 351 357 349 337 332 327 328 335 328 322 321 321 330 108 77 55 84 73 285 274 304 329 356 342 342 4 3 329 336 340 311 317 352 351 336 349 359 13 22 17 11 355 331 268 275 293 296 200 240 237 211 248 273 264 225 191 131 80 76 339 323 12 9 354 141 235 253 252 213 187 179 236 260 194 202 247 207 210 219 196 212 217 201 211 224 229 237
1 2 0 355 344 335 329 324 329 327 321 319 322 79 94 30 34 99 264 313 321 316 326 328 329 342 346 345 314 315 323 313 324 3 348 342 357 337 359 38 351 355 8 349 321 311 303 267 242 286 242 171 174 257 328 8 80 108 112 105 309 286 335 327 255 215 243 253 256 209 199 199 232 260 259 252 252 210 206 205 171 197 211 195 198 210 219 229
26 22 14 11 1 348 344 335 334 334 325 321 37 75 71 75 34 293 275 319 296 292 324 311 311 323 339 351 330 313 311 292 325 3 347 348 9 329 312 293 5 31 353 326 332 330 322 299 310 345 308 160 144 166 289 322 113 139 151 150 203 235 267 261 231 252 262 256 257 206 202 235 248 267 262 251 247 225 212 207 184 191 201 197 193 192 203 213
52 38 30 25 16 3 357 348 344 345 344 9 84 60 61 86 329 299 297 280 259 304 348 308 307 327 359 1 310 325 336 286 332 1 339 358 25 347 328 319 338 111 271 287 314 316 301 302 305 301 315 128 181 213 226 230 186 189 168 151 193 191 225 257 221 242 263 273 272 193 181 220 208 255 254 238 254 244 227 227 213 214 215 200 181 179 195 207
80 41 32 23 17 10 1 355 352 353 3 43 71 61 72 101 258 279 277 264 265 324 327 316 339 352 345 316 301 346 12 278 341 358 336 354 356 310 313 309 267 179 310 310 304 256 246 252 237 238 199 151 260 268 224 212 225 210 136 135 214 191 187 245 229 224 250 299 274 200 220 229 224 275 268 249 264 262 244 242 221 233 237 203 175 187 199 206
121 40 28 17 13 12 8 4 356 355 18 73 66 64 94 179 221 193 232 261 313 321 325 344 24 15 335 321 324 340 324 252 335 347 325 327 314 251 236 261 227 191 183 257 291 273 254 257 229 232 249 223 249 273 230 200 220 176 169 190 218 126 159 243 269 282 77 277 265 205 245 271 303 286 260 245 253 249 241 239 223 226 228 207 201 200 199 205
145 54 32 15 8 8 17 11 359 360 44 87 72 87 153 212 189 194 246 300 318 39 42 7 359 5 332 316 313 327 334 327 345 352 328 319 310 239 250 269 224 208 195 188 254 238 263 282 261 240 260 246 200 255 250 215 177 149 187 217 45 34 330 213 273 312 184 255 268 221 250 272 294 279 270 246 254 253 245 240 236 224 195 205 218 203 198 202
133 83 43 11 1 2 21 12 3 22 68 74 60 91 129 263 188 201 249 321 316 55 70 15 296 352 332 308 303 317 337 348 348 347 326 315 305 271 280 281 244 233 192 161 247 230 260 291 286 226 251 271 88 31 278 238 203 201 238 354 47 263 259 164 219 271 221 257 277 239 253 257 220 240 276 267 234 253 250 233 235 230 205 213 224 207 200 200
52 73 39 359 356 4 25 14 16 47 66 61 50 84 192 275 259 251 211 225 38 66 45 253 238 337 296 263 287 304 332 337 330 336 326 317 307 293 301 267 266 271 181 163 225 259 206 275 305 82 118 61 63 204 276 256 213 224 268 306 196 215 231 183 199 264 199 252 283 283 276 261 222 225 263 246 220 236 248 231 230 231 221 221 220 204 196 197
37 80 343 350 357 4 24 28 45 51 56 70 83 239 287 304 289 301 267 232 166 113 331 250 227 307 278 267 283 287 318 311 306 315 268 280 295 288 287 196 263 297 252 200 225 250 211 221 271 329 96 99 263 197 221 265 213 207 241 216 202 183 102 242 231 216 200 216 268 277 277 270 246 199 237 242 218 217 231 232 233 231 227 226 216 202 192 189
36 72 318 349 357 347 30 43 46 41 66 61 348 277 342 9 307 318 311 274 251 218 216 229 223 252 271 295 301 267 302 307 288 288 264 269 330 290 264 210 263 318 319 280 246 233 222 210 262 292 316 285 281 209 217 240 190 176 229 219 213 191 157 252 239 211 207 210 234 254 282 282 275 170 208 235 218 210 224 234 244 241 233 229 219 203 188 180
50 82 335 354 353 327 68 55 357 35 89 23 345 263 317 356 3 320 320 344 351 304 17 290 228 241 250 266 283 269 324 299 269 338 248 249 243 240 253 282 311 322 313 293 274 232 225 237 260 277 272 274 296 4 287 236 146 161 231 229 258 204 151 226 250 234 194 217 247 255 277 279 276 159 180 216 210 209 204 200 236 251 243 230 220 204 182 175
60 188 354 5 357 332 89 48 326 10 27 292 319 271 300 351 13 319 324 358 358 349 1 334 247 285 264 253 296 307 347 301 238 223 252 278 264 244 261 300 318 318 291 282 291 273 254 252 269 280 270 262 325 22 19 40 101 132 246 233 212 238 230 236 246 277 190 213 226 213 246 264 273 129 183 213 213 214 197 177 198 232 247 227 205 194 175 176
72 238 319 10 19 70 102 59 338 344 320 317 357 343 324 334 5 343 332 327 328 338 339 309 259 299 283 289 317 288 283 5 242 248 261 269 265 269 282 298 312 319 269 241 288 316 303 278 291 309 314 336 4 359 353 8 73 157 261 249 238 260 275 270 255 256 265 224 189 190 250 256 263 48 258 242 234 230 220 205 198 208 227 215 190 184 176 179
37 356 274 0 27 54 102 155 139 178 308 347 3 346 346 335 313 324 280 270 255 193 259 288 290 303 294 325 330 289 265 171 229 282 322 254 274 291 303 318 324 280 248 280 290 268 283 298 296 316 325 331 327 322 314 312 322 309 280 294 299 298 299 291 271 237 256 224 183 209 258 267 278 297 282 257 247 242 237 229 219 211 210 200 183 177 177 181
52 33 318 336 16 43 82 113 87 109 337 12 7 358 15 341 309 302 247 253 290 283 241 260 332 348 328 341 331 298 290 219 223 284 316 281 280 285 300 318 314 277 305 327 325 271 215 281 274 290 296 292 293 293 291 293 307 311 297 323 341 337 326 310 282 252 274 276 237 240 257 277 287 290 287 278 264 254 250 245 236 222 205 199 192 175 171 182
68 79 5 336 341 18 29 14 40 54 325 75 60 352 4 326 316 328 328 293 320 330 304 260 17 9 326 329 329 287 294 289 243 250 266 257 256 283 301 310 296 307 340 340 332 344 318 284 310 314 303 296 288 283 286 293 301 288 291 327 342 341 334 327 297 278 286 292 280 273 273 279 284 289 291 289 280 265 257 250 243 231 207 201 203 183 170 176
53 137 167 136 286 341 11 347 2 5 337 52 127 348 349 342 342 335 309 317 334 351 7 339 335 337 311 312 314 273 304 319 283 250 256 270 294 313 316 318 301 334 348 341 320 343 321 272 323 324 312 307 300 292 292 295 278 235 253 334 341 339 336 329 305 297 295 267 276 292 292 284 283 289 291 290 289 279 267 255 245 238 219 204 205 192 173 174
53 83 292 27 70 219 243 319 346 11 357 0 18 2 354 339 336 307 273 330 338 335 36 336 304 312 314 303 230 244 308 334 303 290 291 312 323 326 322 324 321 335 347 343 329 347 345 293 323 325 311 304 302 313 338 358 336 241 240 340 343 333 327 321 306 304 292 258 269 286 288 282 280 290 295 297 295 287 274 259 244 237 229 216 208 199 183 179
62 107 298 29 33 287 280 335 14 42 358 357 1 334 324 315 334 324 273 223 302 311 2 323 301 307 309 291 217 224 248 232 252 266 272 323 323 319 286 293 316 332 338 340 331 334 356 329 322 322 309 300 310 328 335 344 349 250 304 346 347 340 339 338 327 324 314 295 300 307 304 299 301 309 307 297 291 291 282 259 242 233 227 222 215 205 193 185
60 177 145 89 41 324 315 337 54 74 357 352 337 290 297 277 317 340 297 223 213 273 307 303 301 307 309 297 264 246 255 249 246 250 249 257 262 252 269 293 326 338 332 334 334 332 349 335 317 331 330 306 319 330 327 329 319 241 342 351 350 348 348 338 327 329 315 306 319 330 333 324 320 321 317 300 288 292 287 267 251 233 218 216 216 209 199 191
34 143 95 101 93 329 339 344 31 74 11 304 282 288 278 268 294 354 327 285 259 247 249 271 296 308 320 314 302 289 287 281 267 257 243 230 235 239 263 282 294 307 313 330 334 327 346 341 322 342 338 301 317 323 317 319 333 0 353 350 346 343 339 331 331 325 294 290 314 323 322 320 321 322 321 321 318 305 292 279 266 247 216 206 209 206 199 193